Back to catalog

METEOR 2-20

AliveWeatherPO
NORAD 20826·PAYLOAD·🇷🇺 Russia

Launched Sep 28, 1990 from Plesetsk Cosmodrome

Loading…

Next Passes (next 24 hours)

TLE

FreshSource: Space-Track

Epoch: Sep 14, 2026, 15:01 UTC

1 20826U 90086A   26257.62587258  .00000001  00000-0 -12422-4 0  9993
2 20826  82.5237 126.3337 0014118 131.0195 229.2188 13.84466355816694

Track METEOR 2-20 in real time with AllMySat

Download on the App Store